• In Romania
  • List of Countries
  • For 7 days
  • Water Temperature
  • Satellite Maps
  • Weather Map
  • Weather Widgets
  • user-avatar
    Login

    Hourly Weather Dektyarka

    Today, 22 September, Saturday

    Time Temperature Precipitation Wind Pressure Humidity
    00:00 +16°C° 0 mm 2 mps 744 mmHg 95%
    01:00 +16°C° 0 mm 2 mps 744 mmHg 95%
    02:00 +15°C° 0 mm 2 mps 744 mmHg 96%
    03:00 +15°C° 0 mm 2 mps 743 mmHg 95%
    04:00 +14°C° 0 mm 3 mps 743 mmHg 95%
    05:00 +14°C° 0 mm 3 mps 743 mmHg 94%
    06:00 +16°C° 0 mm 3 mps 743 mmHg 90%
    07:00 +17°C° 0 mm 4 mps 742 mmHg 87%
    08:00 +18°C° 0 mm 4 mps 742 mmHg 83%
    09:00 +20°C° 0 mm 5 mps 742 mmHg 75%
    10:00 +21°C° 0 mm 5 mps 741 mmHg 68%
    11:00 +23°C° 0 mm 5 mps 741 mmHg 60%
    12:00 +23°C° 0 mm 6 mps 740 mmHg 57%
    13:00 +24°C° 0 mm 6 mps 740 mmHg 54%
    14:00 +24°C° 0 mm 6 mps 739 mmHg 51%
    15:00 +23°C° 0 mm 5 mps 739 mmHg 55%
    16:00 +22°C° 0 mm 5 mps 738 mmHg 59%
    17:00 +21°C° 0 mm 4 mps 738 mmHg 63%
    18:00 +20°C° 0.2 mm 4 mps 738 mmHg 68%
    19:00 +19°C° 0.2 mm 4 mps 738 mmHg 72%
    20:00 +18°C° 0.2 mm 4 mps 738 mmHg 77%
    21:00 +15°C° 0.2 mm 4 mps 738 mmHg 81%
    22:00 +14°C° 0.2 mm 3 mps 738 mmHg 85%
    23:00 +13°C° 0.2 mm 2 mps 738 mmHg 89%

    Tomorrow, 23 September, Sunday

    Time Temperature Precipitation Wind Pressure Humidity
    00:00 +13°C° 0.2 mm 2 mps 738 mmHg 89%
    01:00 +13°C° 0.2 mm 2 mps 738 mmHg 89%
    02:00 +12°C° 0.2 mm 2 mps 738 mmHg 88%
    03:00 +12°C° 0.5 mm 2 mps 737 mmHg 89%
    04:00 +10°C° 0.5 mm 2 mps 737 mmHg 90%
    05:00 +10°C° 0.5 mm 2 mps 737 mmHg 91%
    06:00 +10°C° 0.7 mm 2 mps 737 mmHg 91%
    07:00 +10°C° 0.7 mm 2 mps 737 mmHg 92%
    08:00 +9°C° 0.7 mm 2 mps 737 mmHg 92%
    09:00 +10°C° 1 mm 2 mps 737 mmHg 91%
    10:00 +10°C° 1 mm 3 mps 737 mmHg 91%
    11:00 +10°C° 1 mm 3 mps 737 mmHg 90%
    12:00 +11°C° 0.2 mm 3 mps 737 mmHg 86%
    13:00 +11°C° 0.2 mm 3 mps 737 mmHg 82%
    14:00 +12°C° 0.2 mm 4 mps 737 mmHg 78%
    15:00 +11°C° 0.1 mm 3 mps 737 mmHg 79%
    16:00 +11°C° 0.1 mm 3 mps 737 mmHg 81%
    17:00 +10°C° 0.1 mm 3 mps 737 mmHg 82%
    18:00 +10°C° 0 mm 3 mps 737 mmHg 83%
    19:00 +9°C° 0 mm 3 mps 737 mmHg 84%
    20:00 +8°C° 0 mm 2 mps 737 mmHg 86%
    21:00 +8°C° 0 mm 2 mps 737 mmHg 86%
    22:00 +8°C° 0 mm 2 mps 737 mmHg 87%
    23:00 +7°C° 0 mm 2 mps 737 mmHg 88%

    Day after tomorrow, 24 September, Monday

    Time Temperature Precipitation Wind Pressure Humidity
    00:00 +7°C° 0 mm 2 mps 737 mmHg 90%
    01:00 +7°C° 0 mm 3 mps 737 mmHg 92%
    02:00 +7°C° 0 mm 3 mps 737 mmHg 94%
    03:00 +5°C° 0 mm 3 mps 737 mmHg 95%
    04:00 +5°C° 0 mm 3 mps 737 mmHg 95%
    05:00 +5°C° 0 mm 3 mps 737 mmHg 96%
    06:00 +7°C° 0 mm 3 mps 737 mmHg 94%
    07:00 +7°C° 0 mm 3 mps 737 mmHg 91%
    08:00 +8°C° 0 mm 3 mps 737 mmHg 88%
    09:00 +8°C° 0 mm 3 mps 737 mmHg 86%
    10:00 +9°C° 0 mm 3 mps 737 mmHg 84%
    11:00 +9°C° 0 mm 3 mps 737 mmHg 81%
    12:00 +10°C° 0 mm 2 mps 737 mmHg 79%
    13:00 +10°C° 0 mm 2 mps 737 mmHg 77%
    14:00 +11°C° 0 mm 1 mps 737 mmHg 75%
    15:00 +11°C° 0 mm 1 mps 737 mmHg 78%
    16:00 +10°C° 0 mm 1 mps 736 mmHg 81%
    17:00 +10°C° 0 mm 1 mps 736 mmHg 84%
    18:00 +9°C° 0.2 mm 1 mps 735 mmHg 86%
    19:00 +8°C° 0.2 mm 2 mps 735 mmHg 89%
    20:00 +8°C° 0.2 mm 2 mps 735 mmHg 91%
    21:00 +8°C° 0.7 mm 3 mps 734 mmHg 92%
    22:00 +8°C° 0.7 mm 3 mps 733 mmHg 92%
    23:00 +7°C° 0.7 mm 4 mps 732 mmHg 92%

    25 September, Tuesday

    Time Temperature Precipitation Wind Pressure Humidity
    00:00 +7°C° 1 mm 5 mps 732 mmHg 92%
    01:00 +6°C° 1 mm 5 mps 731 mmHg 92%
    02:00 +5°C° 1 mm 6 mps 730 mmHg 91%
    03:00 +5°C° 1.2 mm 6 mps 730 mmHg 91%
    04:00 +5°C° 1.2 mm 6 mps 729 mmHg 91%
    05:00 +5°C° 1.2 mm 7 mps 729 mmHg 90%
    06:00 +5°C° 1 mm 7 mps 729 mmHg 90%
    07:00 +5°C° 1 mm 7 mps 729 mmHg 90%
    08:00 +5°C° 1 mm 7 mps 729 mmHg 89%
    09:00 +5°C° 0.8 mm 7 mps 730 mmHg 88%
    10:00 +5°C° 0.8 mm 8 mps 730 mmHg 86%
    11:00 +5°C° 0.8 mm 8 mps 731 mmHg 85%
    12:00 +6°C° 0.4 mm 8 mps 732 mmHg 82%
    13:00 +6°C° 0.4 mm 8 mps 732 mmHg 79%
    14:00 +6°C° 0.4 mm 8 mps 733 mmHg 77%
    15:00 +6°C° 0.1 mm 7 mps 734 mmHg 76%
    16:00 +5°C° 0.1 mm 7 mps 735 mmHg 75%
    17:00 +5°C° 0.1 mm 7 mps 735 mmHg 74%
    18:00 +4°C° 0 mm 7 mps 736 mmHg 73%
    19:00 +4°C° 0 mm 7 mps 737 mmHg 72%
    20:00 +4°C° 0 mm 7 mps 738 mmHg 70%
    21:00 +3°C° 0 mm 6 mps 738 mmHg 68%
    22:00 +2°C° 0 mm 6 mps 739 mmHg 66%
    23:00 +1°C° 0 mm 5 mps 739 mmHg 64%

    26 September, Wednesday

    Time Temperature Precipitation Wind Pressure Humidity
    00:00 +1°C° 0 mm 5 mps 739 mmHg 65%
    01:00 0°C° 0 mm 4 mps 739 mmHg 66%
    02:00 -1°C° 0 mm 4 mps 740 mmHg 68%
    03:00 -1°C° 0 mm 4 mps 739 mmHg 72%
    04:00 0°C° 0 mm 3 mps 739 mmHg 76%
    05:00 0°C° 0 mm 3 mps 739 mmHg 80%
    06:00 +1°C° 0.2 mm 3 mps 739 mmHg 81%
    07:00 +2°C° 0.2 mm 3 mps 739 mmHg 81%
    08:00 +4°C° 0.2 mm 4 mps 739 mmHg 82%
    09:00 +4°C° 0.1 mm 4 mps 739 mmHg 81%
    10:00 +5°C° 0.1 mm 4 mps 739 mmHg 79%
    11:00 +5°C° 0.1 mm 4 mps 739 mmHg 77%
    12:00 +6°C° 0.2 mm 4 mps 739 mmHg 74%
    13:00 +7°C° 0.2 mm 4 mps 738 mmHg 70%
    14:00 +7°C° 0.2 mm 4 mps 738 mmHg 67%
    15:00 +7°C° 0 mm 3 mps 738 mmHg 71%
    16:00 +7°C° 0 mm 2 mps 738 mmHg 75%
    17:00 +7°C° 0 mm 1 mps 738 mmHg 80%
    18:00 +5°C° 0 mm 2 mps 737 mmHg 82%
    19:00 +5°C° 0 mm 2 mps 737 mmHg 84%
    20:00 +4°C° 0 mm 2 mps 736 mmHg 86%
    21:00 +3°C° 0.2 mm 3 mps 735 mmHg 86%
    22:00 +4°C° 0.2 mm 3 mps 734 mmHg 87%
    23:00 +4°C° 0.2 mm 4 mps 733 mmHg 88%

    27 September, Thursday

    Time Temperature Precipitation Wind Pressure Humidity
    00:00 +4°C° 1 mm 4 mps 732 mmHg 89%
    01:00 +5°C° 1 mm 5 mps 730 mmHg 91%
    02:00 +5°C° 1 mm 5 mps 729 mmHg 93%
    03:00 +6°C° 0.8 mm 5 mps 728 mmHg 93%
    04:00 +6°C° 0.8 mm 4 mps 727 mmHg 94%
    05:00 +7°C° 0.8 mm 4 mps 727 mmHg 94%
    06:00 +7°C° 0.4 mm 4 mps 727 mmHg 91%
    07:00 +8°C° 0.4 mm 5 mps 727 mmHg 88%
    08:00 +8°C° 0.4 mm 6 mps 727 mmHg 85%
    09:00 +8°C° 0.1 mm 6 mps 728 mmHg 79%
    10:00 +9°C° 0.1 mm 6 mps 728 mmHg 72%
    11:00 +9°C° 0.1 mm 6 mps 729 mmHg 66%
    12:00 +9°C° 0.1 mm 6 mps 729 mmHg 63%
    13:00 +9°C° 0.1 mm 6 mps 729 mmHg 60%
    14:00 +10°C° 0.1 mm 5 mps 729 mmHg 57%
    15:00 +9°C° 0 mm 5 mps 729 mmHg 63%
    16:00 +8°C° 0 mm 4 mps 729 mmHg 69%
    17:00 +8°C° 0 mm 3 mps 729 mmHg 74%
    18:00 +7°C° 0.1 mm 3 mps 728 mmHg 78%
    19:00 +7°C° 0.1 mm 3 mps 728 mmHg 82%
    20:00 +6°C° 0.1 mm 4 mps 728 mmHg 86%
    21:00 +5°C° 0 mm 4 mps 728 mmHg 87%
    22:00 +5°C° 0 mm 4 mps 727 mmHg 89%
    23:00 +5°C° 0 mm 4 mps 727 mmHg 91%
    Show more